Location: Clyde
(45.1830°S, 169.3170°E)
Time: 06:19:05
(UTC+12:00)

Daily predictions for brighter satellites

Satellite Brightness Start Highest point End
(mag) Time Altitude Azimuth Time Altitude Azimuth Time Altitude Azimuth
CZ-4B R/B 4.1 18:22:08 10° S 18:25:39 41° WSW 18:29:11 10° NW
Envisat 3.5 18:23:51 10° SSE 18:28:43 40° E 18:33:31 10° NNE
Cosmos 1441 Rocket 4.1 18:25:10 10° S 18:28:46 30° ESE 18:32:16 10° NE
deb Kosmos-1763 4.1 18:27:17 10° SSW 18:30:57 86° WNW 18:34:34 10° NNE
Cosmos 1842 Rocket 3.6 18:27:25 10° N 18:31:55 71° E 18:36:28 10° SSE
BREEZE-M DEB (TANK) 3.9 18:30:49 10° W 18:32:33 20° NNW 18:34:38 10° NNE
Cosmos 1624 Rocket 4.1 18:28:08 10° NNW 18:33:28 90° W 18:38:55 10° SSE
BREEZE M DEB (TANK) 0.6 18:34:32 10° WNW 18:36:01 70° N 18:37:59 12° E
Lacrosse 5 rocket 2.1 18:33:07 10° WNW 18:36:39 41° SSW 18:40:10 10° SE
Cosmos 676 Rocket 4.0 18:31:23 10° SSW 18:36:41 71° ESE 18:41:57 10° NNE
NOAA 6 4.1 18:31:49 10° SSE 18:37:05 71° ENE 18:42:16 10° N
Cosmos 1869 3.2 18:33:32 10° N 18:37:26 76° E 18:41:24 10° SSE
Cosmos 2278 Rocket 3.8 18:33:24 10° WNW 18:38:33 34° SW 18:43:45 10° SSE
Lacrosse 4 Rocket 2.6 18:37:28 10° S 18:41:21 27° SE 18:45:11 10° ENE
Cosmos 1420 Rocket 4.1 18:37:05 10° N 18:42:14 58° ENE 18:47:25 10° SSE
Cosmos 332 Rocket 4.2 18:37:48 10° N 18:42:30 45° ENE 18:47:14 10° SSE
Cosmos 1606 4.5 18:41:21 10° ENE 18:43:00 12° E 18:43:19 12° E
Cosmos 2366 rocket 4.0 18:37:53 10° S 18:44:21 75° E 18:50:42 10° NNE
Cosmos 1408 Rocket 4.4 18:41:13 10° SSW 18:45:39 58° W 18:50:04 10° N
Sich 1 4.0 18:42:29 10° SSE 18:46:18 27° ESE 18:50:05 10° NE
CZ-2C R/B 3.3 18:44:35 10° NE 18:49:34 35° ESE 18:54:40 10° S
Aureole 1 Rocket 2.9 18:46:33 10° SSW 18:50:05 81° WNW 18:54:30 10° NNE
SL-8 Rocket 4.2 18:46:23 10° S 18:52:38 78° W 18:58:48 10° N
Milstar 3 Cent rocket 4.3 18:49:21 10° NW 18:53:14 16° N 18:56:21 10° NNE
Cosmos 371 Rocket 3.3 18:49:28 10° NNW 18:54:20 81° ENE 18:59:17 10° SSE
Cosmos 1743 Rocket 3.6 18:50:25 10° S 18:54:52 88° W 18:59:19 10° N
Cosmos 2369 Rocket 2.7 18:53:18 10° N 18:58:36 40° ENE 19:03:57 10° SE
Cosmos 1943 Rocket 2.1 18:59:38 10° NNW 19:05:05 66° ENE 19:10:37 10° SSE
Cosmos 1954 Rocket 4.4 18:59:57 10° SSW 19:05:14 69° WNW 19:10:30 10° N
H-2A R/B 3.8 19:02:11 10° S 19:05:49 47° WSW 19:09:26 10° NNW
Cosmos 1500 Rocket 4.2 19:07:26 10° SSW 19:11:51 61° W 19:16:09 10° N
SL-27 R/B 3.2 19:08:52 10° S 19:12:12 33° ESE 19:13:19 26° E
Cosmos 1741 Rocket 4.1 19:07:06 10° SSW 19:12:19 55° ESE 19:17:28 10° NE
CREW DRAGON DEMO-1 DEB 2.9 19:09:15 10° NW 19:12:19 62° NE 19:13:30 33° ESE
YAOGAN 6 2.8 19:10:16 10° S 19:14:01 76° WSW 19:17:46 10° NNW
USA 215 4.4 19:13:20 13° SE 19:18:24 33° S 19:24:07 10° WSW
RESURS DK-1 2.9 19:18:34 10° NW 19:22:42 59° WSW 19:26:53 10° SSE
Cosmos 1666 Rocket 3.8 19:21:04 10° S 19:25:22 45° ESE 19:29:35 10° NNE
Cosmos 2221 4.1 19:21:23 10° NW 19:25:27 37° WSW 19:29:35 10° S
CZ-4C R/B 2.9 19:19:37 10° NNW 19:27:44 65° ENE 19:33:45 15° SE
DELTA 2 R/B (1) 4.2 19:24:45 10° WNW 19:30:03 45° N 19:32:42 27° ENE
H-2A R/B 4.4 19:24:49 10° NW 19:30:15 37° NNE 19:41:40 20° ENE
ATLAS 3B R/B 3.6 19:26:02 10° SW 19:33:00 52° WNW 19:39:38 10° NNE
Cosmos 1939 Rocket 3.1 19:35:33 43° E 19:35:33 43° E 19:39:15 10° N
Cosmos 1805 Rocket 3.9 19:31:36 10° SSW 19:36:02 69° W 19:40:25 10° N
ATLAS 2AS CENTAUR R/B 3.8 19:30:46 10° WNW 19:36:22 35° SW 19:42:07 10° SSE
COSMOS 2455 3.3 19:30:57 10° NW 19:36:55 61° SW 19:42:56 10° SSE
SMAP 3.9 19:34:17 10° S 19:38:54 53° WSW 19:43:28 10° NNW
NOAA 12 4.4 19:33:45 10° S 19:39:09 72° WSW 19:44:30 10° NNW
Okean-O 3.0 19:39:16 41° E 19:39:33 41° E 19:43:47 10° N
Cosmos 304 Rocket 3.9 19:35:15 10° NNW 19:40:04 77° WSW 19:44:57 10° SSE
Okean O Rocket 3.2 19:40:42 10° S 19:44:46 36° WSW 19:48:47 10° NW
Helios 1A Rocket 2.8 19:45:55 10° SSE 19:50:07 83° ENE 19:54:15 10° NNW
CZ-4B R/B 4.4 19:46:05 10° S 19:51:13 41° WSW 19:56:13 10° NW
Cosmos 1633 Rocket 2.9 19:48:07 10° S 19:52:37 72° E 19:54:34 33° NNE
DMSP B5D2-2 4.3 19:48:55 10° N 19:54:14 75° WNW 19:59:38 10° SSW
Cosmos 1331 Rocket 3.9 19:50:29 10° N 19:55:35 62° ENE 19:57:18 40° SE
CZ-2C R/B 3.5 19:53:38 32° NNE 19:55:42 77° ESE 20:00:16 10° S
Feng Yun 1-1 Rocket 4.4 19:49:50 10° SSE 19:55:49 85° WSW 20:01:36 10° NNW
Cosmos 1833 4.1 19:50:26 10° SSW 19:56:10 68° ESE 19:58:09 41° NE
Cosmos 1452 Rocket 4.4 19:52:29 10° NW 19:57:38 50° WSW 20:02:51 10° SSE
Cosmos 1934 Rocket 3.9 19:51:32 10° S 19:57:48 69° E 20:04:06 10° NNE
Meteor 1-25 Rocket 4.1 19:57:21 10° S 20:03:03 65° ESE 20:04:45 43° NE
Cosmos 1328 Rocket 4.4 19:59:44 10° N 20:02:28 36° N 20:02:28 36° N
Cosmos 1339 Rocket 4.4 20:04:01 10° NNE 20:09:58 56° E 20:15:58 10° SSE
NOAA 11 4.5 20:09:17 10° S 20:14:44 66° WSW 20:20:08 10° NNW
Lacrosse 5 rocket 3.5 20:14:19 10° SW 20:16:29 15° SSW 20:16:29 15° SSW
Cosmos 1606 3.6 20:14:32 10° NNW 20:18:13 49° WSW 20:18:31 47° WSW
Lacrosse 4 Rocket 2.7 20:15:54 10° SW 20:20:11 42° WNW 20:21:48 30° NNW
Cosmos 1656 Rocket 3.7 20:17:35 10° NNW 20:23:18 84° WSW 20:25:05 47° SSE
Cosmos 1151 Rocket 3.7 20:20:09 10° NNW 20:23:33 50° NW 20:23:33 50° NW
BREEZE-M DEB (TANK) 3.9 20:15:29 10° W 20:26:04 56° S 20:26:25 54° SSE
Cosmos 2297 Rocket 4.2 20:22:26 10° S 20:24:08 15° SSE 20:24:08 15° SSE
CZ-2C R/B 4.2 20:24:43 10° NNW 20:29:47 37° W 20:35:00 10° SSW
Meteor 1-20 Rocket 4.4 20:29:24 10° SSW 20:35:02 69° W 20:36:55 42° NNW
Cosmos 1238 Rocket 4.5 20:31:15 10° S 20:34:30 36° S 20:34:30 36° S
Cosmos 2369 Rocket 3.6 20:37:26 10° WNW 20:42:41 36° SW 20:47:10 14° S
Cosmos 1943 Rocket 4.3 20:44:59 10° W 20:49:20 23° SW 20:53:44 10° S
Cosmos 1605 Rocket 4.2 20:51:09 10° SSW 20:57:31 67° W 20:58:01 64° WNW
USA 215 4.1 21:00:40 37° S 21:00:40 37° S 21:06:19 10° SW
CZ-4C R/B 3.9 21:09:27 10° WNW 21:16:45 39° SW 21:18:58 32° S
Cosmos 2227 Rocket 4.4 21:12:24 10° S 21:13:33 15° S 21:13:33 15° S
